CW9487 Tolfa IT current weather conditions

sailwx.info

Wind from 237

Air temperature 31.7° C
Dewpoint 13.4° C

Last reported at 2020-Aug-12 13:01 UTC.
Time now 2020-Aug-12 13:18 UTC

Location: N 42°09' E 011°55'.
View on Google Maps.

See reports from other nearby stations

  
Tides and Currents Weather Stations Pressure Air Temp Water Temp Dewpoint Dewpoint Depression Visibility Wind Speed Wind Dir Waves Ship Positions
date/time (UTC)wind fromknots sea level pressurealtimeterstation pressurevisibilityair tempwater tempwave heightnotes
2020-Aug-12 13:01 237 31.7
2020-Aug-12 12:45 265 0 gusting 3 31.7
2020-Aug-12 12:30 299 31.1
2020-Aug-12 12:16 265 31.7
2020-Aug-12 12:01 227 31.1
2020-Aug-12 11:46 230 0 gusting 4 30.6
2020-Aug-12 11:30 241 30.6
2020-Aug-12 11:15 254 0 gusting 6 30.0
2020-Aug-12 11:00 198 30.0
2020-Aug-12 10:46 213 28.9
2020-Aug-12 10:31 223 1 gusting 8 29.4
2020-Aug-12 10:15 232 1 gusting 6 29.4
2020-Aug-12 10:00 222 28.9
2020-Aug-12 09:45 185 0 gusting 2 28.9
2020-Aug-12 09:30 211 28.9
2020-Aug-12 09:15 212 29.4
2020-Aug-12 09:00 254 28.9
2020-Aug-12 08:45 167 28.9
2020-Aug-12 08:30 231 28.9
2020-Aug-12 08:15 258 28.9
2020-Aug-12 08:01 257 28.3
2020-Aug-12 07:46 257 27.8
2020-Aug-12 07:31 257 27.2
2020-Aug-12 07:16 257 26.1
2020-Aug-12 07:00 256 25.6
2020-Aug-12 06:46 239 25.0
2020-Aug-12 06:31 271 24.4
2020-Aug-12 06:15 302 23.9
2020-Aug-12 06:00 305 23.3
2020-Aug-12 05:45 305 23.3
2020-Aug-12 05:31 305 23.3
2020-Aug-12 05:16 305 23.3
2020-Aug-12 05:01 305 23.3
2020-Aug-12 04:45 305 23.3
2020-Aug-12 04:30 305 23.3
2020-Aug-12 04:15 305 23.3
2020-Aug-12 04:01 305 22.8
2020-Aug-12 03:46 305 22.8
2020-Aug-12 03:31 305 23.3
2020-Aug-12 03:16 305 22.8
2020-Aug-12 03:00 305 22.8
2020-Aug-12 02:45 305 22.8
2020-Aug-12 02:31 305 22.8
2020-Aug-12 02:15 305 22.8
2020-Aug-12 02:01 305 23.3
2020-Aug-12 01:45 304 23.3
2020-Aug-12 01:30 304 23.3
2020-Aug-12 01:15 304 23.9
2020-Aug-12 01:00 304 24.4
2020-Aug-12 00:45 304 24.4
2020-Aug-12 00:30 304 24.4
2020-Aug-12 00:15 299 1 gusting 9 24.4
2020-Aug-12 00:00 307 1 gusting 6 23.9
2020-Aug-11 23:45 268 0 gusting 6 23.9
2020-Aug-11 23:30 290 23.9
2020-Aug-11 23:15 292 23.9
2020-Aug-11 23:00 275 23.9
2020-Aug-11 22:45 295 0 gusting 6 24.4
2020-Aug-11 22:30 308 2 gusting 7 24.4
2020-Aug-11 22:15 293 0 gusting 4 24.4
2020-Aug-11 22:03 239 23.9
2020-Aug-11 21:46 239 24.4
2020-Aug-11 21:31 239 24.4
2020-Aug-11 21:16 303 0 gusting 6 24.4
2020-Aug-11 21:01 304 24.4
2020-Aug-11 20:46 304 0 gusting 6 24.4
2020-Aug-11 20:31 281 0 gusting 6 25.0
2020-Aug-11 20:17 321 0 gusting 6 25.0
2020-Aug-11 20:02 315 25.0
2020-Aug-11 19:47 321 25.0
2020-Aug-11 19:31 303 0 gusting 5 25.0
2020-Aug-11 19:17 144 25.0
2020-Aug-11 19:01 144 25.0
2020-Aug-11 18:46 317 25.6
2020-Aug-11 18:32 286 2 gusting 8 26.1
2020-Aug-11 18:16 311 0 gusting 6 26.1
2020-Aug-11 18:01 292 1 gusting 6 26.1
2020-Aug-11 17:47 279 0 gusting 6 26.7
2020-Aug-11 17:31 286 1 gusting 7 26.7
2020-Aug-11 17:17 284 1 gusting 6 27.2
2020-Aug-11 17:01 262 0 gusting 6 27.8
2020-Aug-11 16:46 290 2 gusting 9 28.3
2020-Aug-11 16:31 254 1 gusting 6 28.3
2020-Aug-11 16:16 254 0 gusting 6 29.4
2020-Aug-11 16:01 270 2 gusting 8 30.0
2020-Aug-11 15:47 304 1 gusting 6 30.6
2020-Aug-11 15:31 223 30.6
2020-Aug-11 15:16 283 0 gusting 6 31.1
2020-Aug-11 15:01 240 0 gusting 3 31.1
2020-Aug-11 14:31 226 0 gusting 6 32.2
2020-Aug-11 14:15 313 31.7
2020-Aug-11 14:01 234 32.2
2020-Aug-11 13:46 321 0 gusting 5 32.2
2020-Aug-11 13:31 257 0 gusting 6 32.2
2020-Aug-11 13:15 234 0 gusting 6 31.7
2020-Aug-11 13:00 152 1 gusting 6 32.2
2020-Aug-11 12:45 271 31.7
2020-Aug-11 12:30 229 31.7
2020-Aug-11 12:16 286 1 gusting 7 31.7
2020-Aug-11 12:00 247 0 gusting 4 31.7
2020-Aug-11 11:45 245 0 gusting 4 31.7
2020-Aug-11 11:30 178 0 gusting 3 31.1
2020-Aug-11 11:15 266 31.7
2020-Aug-11 11:00 269 0 gusting 6 31.7
2020-Aug-11 10:45 296 31.7
2020-Aug-11 10:30 282 30.6
2020-Aug-11 10:16 245 0 gusting 4 30.0
2020-Aug-11 10:00 213 30.0
2020-Aug-11 09:45 279 30.0
2020-Aug-11 09:31 086 31.1
2020-Aug-11 09:15 093 30.0
2020-Aug-11 09:00 153 30.0
2020-Aug-11 08:45 156 30.0
2020-Aug-11 08:30 188 29.4
2020-Aug-11 08:15 190 28.9
2020-Aug-11 08:00 242 28.3
2020-Aug-11 07:46 242 27.8
2020-Aug-11 07:31 252 26.1
2020-Aug-11 07:16 252 25.0
2020-Aug-11 07:01 252 23.9
2020-Aug-11 06:47 252 23.9
2020-Aug-11 06:31 252 23.9
2020-Aug-11 06:15 252 23.9
2020-Aug-11 06:01 252 23.9
2020-Aug-11 05:46 252 24.4
2020-Aug-11 05:30 252 24.4
2020-Aug-11 05:16 252 24.4
2020-Aug-11 05:01 252 24.4
2020-Aug-11 04:46 252 23.9
2020-Aug-11 04:31 252 23.3
2020-Aug-11 04:16 252 23.3
2020-Aug-11 04:01 252 22.8
2020-Aug-11 03:46 252 22.8
2020-Aug-11 03:31 252 23.3
2020-Aug-11 03:15 252 23.9
2020-Aug-11 03:00 252 23.9
2020-Aug-11 02:30 252 24.4
2020-Aug-11 02:16 252 24.4
2020-Aug-11 02:00 252 23.9
2020-Aug-11 01:45 252 23.9
2020-Aug-11 01:30 252 23.9
2020-Aug-11 01:16 252 23.9
2020-Aug-11 01:00 252 23.9
2020-Aug-11 00:46 252 23.9
2020-Aug-11 00:30 252 24.4
2020-Aug-11 00:15 252 24.4
2020-Aug-11 00:00 252 24.4
2020-Aug-10 23:45 252 24.4
2020-Aug-10 23:30 252 24.4
2020-Aug-10 23:15 252 25.0
2020-Aug-10 23:00 252 25.0
2020-Aug-10 22:45 252 25.0
2020-Aug-10 22:30 252 25.6
2020-Aug-10 22:15 252 25.6
2020-Aug-10 22:00 252 25.6
2020-Aug-10 21:45 252 25.6
2020-Aug-10 21:30 252 25.6
2020-Aug-10 21:15 252 25.6
2020-Aug-10 21:00 258 26.1
2020-Aug-10 20:45 256 0 gusting 8 26.7
2020-Aug-10 20:31 270 1 gusting 7 26.7
2020-Aug-10 20:16 252 2 gusting 10 26.7
2020-Aug-10 20:01 252 1 gusting 7 26.7
2020-Aug-10 19:47 286 1 gusting 8 26.7
2020-Aug-10 19:32 246 0 gusting 8 26.1
2020-Aug-10 19:16 295 0 gusting 6 26.1
2020-Aug-10 19:02 268 0 gusting 5 26.7
2020-Aug-10 18:46 287 1 gusting 11 26.7
2020-Aug-10 18:31 247 1 gusting 7 26.7
2020-Aug-10 18:16 248 0 gusting 6 26.7
2020-Aug-10 18:01 263 0 gusting 6 27.2
2020-Aug-10 17:46 290 1 gusting 8 27.2
2020-Aug-10 17:31 288 3 gusting 8 27.2
2020-Aug-10 17:16 267 1 gusting 8 27.8
2020-Aug-10 17:02 298 2 gusting 8 28.3
2020-Aug-10 16:46 246 0 gusting 6 28.9
2020-Aug-10 16:31 282 29.4
2020-Aug-10 16:17 311 0 gusting 6 30.6
2020-Aug-10 16:01 296 31.1
2020-Aug-10 15:47 221 0 gusting 3 31.1
2020-Aug-10 15:32 210 0 gusting 3 31.7
2020-Aug-10 15:16 219 0 gusting 3 31.7
2020-Aug-10 15:01 173 31.7
2020-Aug-10 14:45 241 0 gusting 5 31.7
2020-Aug-10 14:31 194 0 gusting 6 31.1
2020-Aug-10 14:18 231 0 gusting 2 31.1
2020-Aug-10 14:01 147 0 gusting 4 31.1
2020-Aug-10 13:46 137 0 gusting 6 31.7
2020-Aug-10 13:31 222 0 gusting 7 31.7
2020-Aug-10 13:16 251 1 gusting 4 31.7
2020-Aug-10 13:01 201 0 gusting 6 31.7